A Fire Weather Index for personal weather stations

(See below the table for background)
Legenda:
Laag (0-210)
Zeer hoog (490 - 630)

Matig (210 - 350)
Extreem (630 - 800)

Hoog (350 - 490)
Catastrophic (800+)


Flame  Flame
41.7
Datum Temp. (°C) Wind Snelh. (km/h) Neersl. (mm) RH Days since Rain pwsFWI
Voorspelling is actief (inclusief vandaag), waarden staan boven de rode lijn.
21/05/21 14,0 26,0 5,8 0,74 0 32,3
20/05/21 15,0 18,0 0,2 0,59 0 25,1
19/05/21 14,0 12,0 1,7 0,66 0 11,0
18/05/21 13,0 17,0 0,8 0,72 0 31,3
17/05/21 14,0 17,0 9,2 0,78 0 37,3
16/05/21 15,3 16,2 2,8 0,70 0 41,7
15/05/21 15,8 13,0 7,2 0,70 0 68,9
14/05/21 11,5 7,9 0,0 0,79 3 67,3
13/05/21 13,4 19,4 0,0 0,79 2 61,8
12/05/21 17,2 13,0 0,0 0,68 1 48,3
11/05/21 16,0 16,2 4,0 0,81 0 36,6
10/05/21 20,3 17,6 1,0 0,63 0 31,0
09/05/21 24,2 14,4 1,2 0,64 0 15,6
08/05/21 13,9 16,2 12,0 0,58 0 7,2
07/05/21 12,1 13,0 2,0 0,61 0 7,1
06/05/21 11,2 13,0 4,8 0,61 0 6,7
05/05/21 9,3 22,7 4,4 0,74 0 6,9
04/05/21 11,1 25,9 15,2 0,68 0 7,3
03/05/21 12,8 17,6 6,0 0,69 0 60,7
02/05/21 9,2 16,2 1,8 0,70 0 99,7
01/05/21 11,7 11,2 4,6 0,76 0 117,0
30/04/21 12,3 16,2 2,0 0,69 0 137,6
29/04/21 10,9 24,1 13,0 0,75 0 164,2
28/04/21 14,3 28,8 0,0 0,41 14 189,0
27/04/21 12,8 20,9 0,0 0,37 13 145,9
26/04/21 10,1 19,4 0,0 0,60 12 132,4
25/04/21 10,2 20,9 0,0 0,67 11 148,2
24/04/21 10,7 24,1 0,0 0,54 10 149,9
23/04/21 12,0 14,4 0,0 0,60 9 144,9
22/04/21 10,1 14,4 0,0 0,63 8 153,5

Science background here. Prediction: https://www.yourweather.co.uk/